Time,TemperatureF,DewpointF,PressureIn,WindDirection,WindDirectionDegrees,WindSpeedMPH,WindSpeedGustMPH,Humidity,HourlyPrecipIn,Conditions,Clouds,dailyrainin,SolarRadiationWatts/m^2,SoftwareType,DateUTC
2013-04-02 00:00:00,17.0,8.0,-100.00,West,270,1.0,-999.0,68,-99.99,,,-99.99,0.000000,,2013-04-02 04:00:00,
2013-04-02 00:43:00,17.0,8.0,-100.00,West,270,1.0,-999.0,68,-99.99,,,-99.99,0.000000,,2013-04-02 04:43:00,
2013-04-02 00:53:00,17.0,8.0,-100.00,West,270,1.0,-999.0,68,-99.99,,,-99.99,0.000000,,2013-04-02 04:53:00,
2013-04-02 01:00:00,18.0,7.0,-100.00,WSW,247,1.0,-999.0,62,-99.99,,,-99.99,0.000000,,2013-04-02 05:00:00,
2013-04-02 01:43:00,18.0,7.0,-100.00,WSW,247,1.0,-999.0,62,-99.99,,,-99.99,0.000000,,2013-04-02 05:43:00,
2013-04-02 01:52:00,18.0,7.0,-100.00,WSW,247,1.0,-999.0,62,-99.99,,,-99.99,0.000000,,2013-04-02 05:52:00,
2013-04-02 02:00:00,18.0,7.0,-100.00,West,270,1.0,-999.0,61,-99.99,,,-99.99,0.000000,,2013-04-02 06:00:00,
2013-04-02 02:42:00,18.0,7.0,-100.00,West,270,1.0,-999.0,61,-99.99,,,-99.99,0.000000,,2013-04-02 06:42:00,
2013-04-02 02:52:00,18.0,7.0,-100.00,West,270,1.0,-999.0,61,-99.99,,,-99.99,0.000000,,2013-04-02 06:52:00,
2013-04-02 04:00:00,18.0,7.0,-100.00,WNW,292,3.0,-999.0,61,-99.99,,,-99.99,0.000000,,2013-04-02 08:00:00,
2013-04-02 04:43:00,18.0,7.0,-100.00,WNW,292,3.0,-999.0,61,-99.99,,,-99.99,0.000000,,2013-04-02 08:43:00,
2013-04-02 04:52:00,18.0,7.0,-100.00,WNW,292,3.0,-999.0,61,-99.99,,,-99.99,0.000000,,2013-04-02 08:52:00,
2013-04-02 05:00:00,17.0,7.0,-100.00,WNW,292,3.0,-999.0,63,-99.99,,,-99.99,0.000000,,2013-04-02 09:00:00,
2013-04-02 05:43:00,17.0,7.0,-100.00,WNW,292,3.0,-999.0,63,-99.99,,,-99.99,0.000000,,2013-04-02 09:43:00,
2013-04-02 05:53:00,17.0,7.0,-100.00,WNW,292,3.0,-999.0,63,-99.99,,,-99.99,0.000000,,2013-04-02 09:53:00,
2013-04-02 06:00:00,16.0,7.0,-100.00,WNW,292,3.0,-999.0,65,-99.99,,,-99.99,0.000000,,2013-04-02 10:00:00,
2013-04-02 06:43:00,16.0,7.0,-100.00,WNW,292,3.0,-999.0,65,-99.99,,,-99.99,0.000000,,2013-04-02 10:43:00,
2013-04-02 06:52:00,16.0,7.0,-100.00,WNW,292,3.0,-999.0,65,-99.99,,,-99.99,0.000000,,2013-04-02 10:52:00,
2013-04-02 07:00:00,16.0,7.0,-100.00,WNW,292,3.0,-999.0,67,-99.99,,,-99.99,0.000000,,2013-04-02 11:00:00,
2013-04-02 07:43:00,16.0,7.0,-100.00,WNW,292,3.0,-999.0,67,-99.99,,,-99.99,0.000000,,2013-04-02 11:43:00,
2013-04-02 07:53:00,16.0,7.0,-100.00,WNW,292,3.0,-999.0,67,-99.99,,,-99.99,0.000000,,2013-04-02 11:53:00,
2013-04-02 09:00:00,18.0,8.0,-100.00,WNW,292,4.0,-999.0,63,-99.99,,,-99.99,147.320007,,2013-04-02 13:00:00,
2013-04-02 09:42:00,18.0,8.0,-100.00,WNW,292,4.0,-999.0,63,-99.99,,,-99.99,147.320007,,2013-04-02 13:42:00,
2013-04-02 09:52:00,18.0,8.0,-100.00,WNW,292,4.0,-999.0,63,-99.99,,,-99.99,147.320007,,2013-04-02 13:52:00,
2013-04-02 10:00:00,23.0,9.0,-100.00,WNW,292,4.0,-999.0,53,-99.99,,,-99.99,322.480011,,2013-04-02 14:00:00,
2013-04-02 10:43:00,23.0,9.0,-100.00,WNW,292,4.0,-999.0,53,-99.99,,,-99.99,322.480011,,2013-04-02 14:43:00,
2013-04-02 10:52:00,23.0,9.0,-100.00,WNW,292,4.0,-999.0,53,-99.99,,,-99.99,322.480011,,2013-04-02 14:52:00,
2013-04-02 11:00:00,28.0,10.0,-100.00,NW,315,6.0,-999.0,45,-99.99,,,-99.99,493.000000,,2013-04-02 15:00:00,
2013-04-02 11:43:00,28.0,10.0,-100.00,NW,315,6.0,-999.0,45,-99.99,,,-99.99,493.000000,,2013-04-02 15:43:00,
2013-04-02 11:58:00,28.0,10.0,-100.00,NW,315,6.0,-999.0,45,-99.99,,,-99.99,493.000000,,2013-04-02 15:58:00,
2013-04-02 12:44:00,30.0,9.0,-100.00,WNW,292,8.0,-999.0,40,-99.99,,,-99.99,598.559998,,2013-04-02 16:44:00,
2013-04-02 12:53:00,30.0,9.0,-100.00,WNW,292,8.0,-999.0,40,-99.99,,,-99.99,598.559998,,2013-04-02 16:53:00,
2013-04-02 13:00:00,32.0,8.0,-100.00,WNW,292,7.0,-999.0,35,-99.99,,,-99.99,679.760010,,2013-04-02 17:00:00,
2013-04-02 13:43:00,32.0,8.0,-100.00,WNW,292,7.0,-999.0,35,-99.99,,,-99.99,679.760010,,2013-04-02 17:43:00,
2013-04-02 13:55:00,32.0,8.0,-100.00,WNW,292,7.0,-999.0,35,-99.99,,,-99.99,679.760010,,2013-04-02 17:55:00,
2013-04-02 15:00:00,34.0,7.0,-100.00,WNW,292,7.0,-999.0,31,-99.99,,,-99.99,528.960022,,2013-04-02 19:00:00,
2013-04-02 15:47:00,34.0,7.0,-100.00,WNW,292,7.0,-999.0,31,-99.99,,,-99.99,528.960022,,2013-04-02 19:47:00,
2013-04-02 15:57:00,34.0,7.0,-100.00,WNW,292,7.0,-999.0,31,-99.99,,,-99.99,528.960022,,2013-04-02 19:57:00,
2013-04-02 16:00:00,34.0,7.0,-100.00,WNW,292,8.0,-999.0,31,-99.99,,,-99.99,469.799988,,2013-04-02 20:00:00,
2013-04-02 16:44:00,34.0,7.0,-100.00,WNW,292,8.0,-999.0,31,-99.99,,,-99.99,469.799988,,2013-04-02 20:44:00,
2013-04-02 16:54:00,34.0,7.0,-100.00,WNW,292,8.0,-999.0,31,-99.99,,,-99.99,469.799988,,2013-04-02 20:54:00,
2013-04-02 18:00:00,37.0,5.0,-100.00,West,270,8.0,-999.0,26,-99.99,,,-99.99,453.559998,,2013-04-02 22:00:00,
2013-04-02 18:44:00,37.0,5.0,-100.00,West,270,8.0,-999.0,26,-99.99,,,-99.99,453.559998,,2013-04-02 22:44:00,
2013-04-02 18:54:00,37.0,5.0,-100.00,West,270,8.0,-999.0,26,-99.99,,,-99.99,453.559998,,2013-04-02 22:54:00,
2013-04-02 19:00:00,36.0,4.0,-100.00,WNW,292,8.0,-999.0,25,-99.99,,,-99.99,257.519989,,2013-04-02 23:00:00,
2013-04-02 19:43:00,36.0,4.0,-100.00,WNW,292,8.0,-999.0,25,-99.99,,,-99.99,257.519989,,2013-04-02 23:43:00,
2013-04-02 19:54:00,36.0,4.0,-100.00,WNW,292,8.0,-999.0,25,-99.99,,,-99.99,257.519989,,2013-04-02 23:54:00,
2013-04-02 20:00:00,34.0,4.0,-100.00,SSW,202,6.0,-999.0,28,-99.99,,,-99.99,85.839996,,2013-04-03 00:00:00,
2013-04-02 20:47:00,34.0,4.0,-100.00,SSW,202,6.0,-999.0,28,-99.99,,,-99.99,85.839996,,2013-04-03 00:47:00,
2013-04-02 21:00:00,28.0,9.0,-100.00,ENE,67,4.0,-999.0,43,-99.99,,,-99.99,3.480000,,2013-04-03 01:00:00,
2013-04-02 21:43:00,28.0,9.0,-100.00,ENE,67,4.0,-999.0,43,-99.99,,,-99.99,3.480000,,2013-04-03 01:43:00,
2013-04-02 21:53:00,28.0,9.0,-100.00,ENE,67,4.0,-999.0,43,-99.99,,,-99.99,3.480000,,2013-04-03 01:53:00,
2013-04-02 22:00:00,25.0,10.0,-100.00,SW,225,1.0,-999.0,52,-99.99,,,-99.99,0.000000,,2013-04-03 02:00:00,
2013-04-02 22:44:00,25.0,10.0,-100.00,SW,225,1.0,-999.0,52,-99.99,,,-99.99,0.000000,,2013-04-03 02:44:00,
2013-04-02 22:53:00,25.0,10.0,-100.00,SW,225,1.0,-999.0,52,-99.99,,,-99.99,0.000000,,2013-04-03 02:53:00,
2013-04-02 23:00:00,24.0,10.0,-100.00,WNW,292,1.0,-999.0,56,-99.99,,,-99.99,0.000000,,2013-04-03 03:00:00,
2013-04-02 23:44:00,24.0,10.0,-100.00,WNW,292,1.0,-999.0,56,-99.99,,,-99.99,0.000000,,2013-04-03 03:44:00,
2013-04-02 23:54:00,24.0,10.0,-100.00,WNW,292,1.0,-999.0,56,-99.99,,,-99.99,0.000000,,2013-04-03 03:54:00,